User: anonymous   Login
Location: Unspecified
(0.0000°N, 0.0000°E)
Time: 18:44:15
(UTC+01:00)
Language:

Cosmos 1703 - Orbit

View from above orbital plane
View from above orbital plane
View from above satellite
View from above satellite

Ground track
Ground track

The orbit data is extracted from the following two-line orbital elements,

1 16262U 85108A   14325.11309588  .00006874  00000-0  46052-3 0  5653
2 16262 082.4943 089.9607 0011848 289.6032 070.3916 15.06690959577263
Epoch (UTC): 21 November 2014 02:42:51
Eccentricity: 0.0011848
inclination: 82.4943°
perigee height: 538 km
apogee height: 554 km
right ascension of ascending node: 89.9607°
argument of perigee: 289.6032°
revolutions per day: 15.06690959
mean anomaly at epoch: 70.3916°
orbit number at epoch: 57726

The dashed part of the orbit path shows where the satellite is in the earth's shadow,  

DLR